Back to catalog

CZ-3B R/B

AliveHEO
NORAD 63663·ROCKET BODY·🇨🇳 China

Launched Apr 27, 2025 from Xichang Satellite Launch Center

Loading…

Next Passes (next 24 hours)

TLE

FreshSource: Space-Track

Epoch: Sep 14, 2026, 12:20 UTC

1 63663U 25084B   26257.51434506  .00012938  00000-0  88492-3 0  9990
2 63663  27.0734 234.7573 6962857 179.2284 183.2140  2.72240662 12931

Track CZ-3B R/B in real time with AllMySat

Download on the App Store